Weather History for Andersen AFB, GU

Change the Weather History Date:

Sunday, December 9, 2012

  Actual Average Record
Temperature  
Mean Temperature 78 °F -  
Max Temperature 84 °F 83 °F 86 °F (2000)
Min Temperature 73 °F 75 °F 48 °F (2002)
Cooling Degree Days 14    
Growing Degree Days 28 (Base 50)    
Moisture  
Dew Point 73 °F    
Average Humidity 80    
Maximum Humidity 95    
Minimum Humidity 70    
Precipitation  
Precipitation 0.06 in - - ()
Sea Level Pressure  
Sea Level Pressure 29.78 in    
Wind  
Wind Speed 10 mph (ENE)    
Max Wind Speed 15 mph    
Max Gust Speed 21 mph    
Visibility 10 miles    
Events Rain    
Averages and records for this station are not official NWS values.
T = Trace of Precipitation, MM = Missing Value Source: NWS Daily Summary

Daily Weather History Graph

Daily Weather History Graph

Search for Another Location

Airport:

Trip Planner

Search our weather history database for the weather conditions in past years. The results will help you decide how hot, cold, wet, or windy it might be!

Date:

Astronomy

Dec. 09, 2012 Rise Set
Actual Time 6:32 AM ChST 5:53 PM ChST
Civil Twilight 6:09 AM ChST 6:16 PM ChST
Nautical Twilight 5:42 AM ChST 6:42 PM ChST
Astronomical Twilight 5:16 AM ChST 7:09 PM ChST
Moon 1:57 AM ChST (12/9) 2:03 PM ChST (12/9)
Length of Visible Light 12h 07m
Length of Day
11h 20m
Waning Crescent, 24% of the Moon is Illuminated
Dec 9
Waning Crescent
Dec 13
New
Dec 20
First Quarter
Dec 28
Full
Jan 5
Last Quarter

Hourly Weather History & Observations

Time (ChST) Temp. Heat Index Dew Point Humidity Pressure Visibility Wind Dir Wind Speed Gust Speed Precip Events Conditions
12:02 AM 78.8 °F - 73.4 °F 83% 29.83 in 10.0 mi ENE 12.7 mph - N/A   Mostly Cloudy
12:14 AM 78.8 °F - 73.4 °F 83% 29.83 in 10.0 mi ENE 12.7 mph - N/A   Mostly Cloudy
12:40 AM 78.8 °F - 73.4 °F 83% 29.83 in 10.0 mi NE 11.5 mph - N/A   Mostly Cloudy
12:47 AM 78.8 °F - 71.6 °F 78% 29.83 in 10.0 mi ENE 10.4 mph - N/A   Scattered Clouds
12:55 AM 78.1 °F - 72.5 °F 83% 29.83 in 10.0 mi ENE 11.5 mph - N/A   Scattered Clouds
1:55 AM 77.9 °F - 72.3 °F 83% 29.81 in 10.0 mi NE 10.4 mph - N/A   Scattered Clouds
2:55 AM 77.5 °F - 72.0 °F 83% 29.78 in 10.0 mi ENE 8.1 mph - N/A   Partly Cloudy
3:55 AM 77.7 °F - 72.3 °F 83% 29.78 in 10.0 mi ENE 10.4 mph - N/A   Scattered Clouds
4:16 AM 77.0 °F - 73.4 °F 89% 29.78 in 10.0 mi ENE 8.1 mph - N/A   Mostly Cloudy
4:26 AM 77.0 °F - 73.4 °F 89% 29.78 in 10.0 mi ENE 9.2 mph - N/A   Scattered Clouds
4:31 AM 77.0 °F - 73.4 °F 89% 29.78 in 10.0 mi NE 9.2 mph - N/A   Mostly Cloudy
4:35 AM 78.8 °F - 71.6 °F 78% 29.78 in 10.0 mi NE 9.2 mph - N/A   Scattered Clouds
4:38 AM 78.8 °F - 71.6 °F 78% 29.78 in 10.0 mi NE 9.2 mph - N/A   Mostly Cloudy
4:43 AM 77.0 °F - 71.6 °F 83% 29.78 in 10.0 mi ENE 10.4 mph - N/A   Scattered Clouds
4:55 AM 77.7 °F - 72.1 °F 83% 29.78 in 10.0 mi ENE 10.4 mph - N/A   Partly Cloudy
5:48 AM 77.0 °F - 73.4 °F 89% 29.79 in 10.0 mi NE 9.2 mph - N/A   Mostly Cloudy
5:55 AM 78.1 °F - 73.2 °F 85% 29.79 in 10.0 mi NE 10.4 mph - N/A   Mostly Cloudy
6:29 AM 77.0 °F - 73.4 °F 89% 29.80 in 10.0 mi NE 9.2 mph - N/A   Mostly Cloudy
6:35 AM 77.0 °F - 73.4 °F 89% 29.80 in 10.0 mi NE 10.4 mph - N/A   Mostly Cloudy
6:44 AM 77.0 °F - 73.4 °F 89% 29.80 in 10.0 mi ENE 9.2 mph - N/A   Scattered Clouds
6:45 AM 77.0 °F - 73.4 °F 89% 29.80 in 10.0 mi ENE 9.2 mph - N/A   Mostly Cloudy
6:48 AM 77.0 °F - 73.4 °F 89% 29.80 in 10.0 mi ENE 9.2 mph - N/A   Mostly Cloudy
6:50 AM 77.0 °F - 73.4 °F 89% 29.80 in 10.0 mi ENE 8.1 mph - N/A   Mostly Cloudy
6:55 AM 78.1 °F - 73.2 °F 85% 29.81 in 10.0 mi ENE 8.1 mph - N/A   Mostly Cloudy
7:07 AM 78.8 °F - 73.4 °F 83% 29.81 in 10.0 mi East 9.2 mph - N/A   Scattered Clouds
7:55 AM 80.8 °F 85.2 °F 72.5 °F 76% 29.81 in 10.0 mi East 11.5 mph - N/A   Partly Cloudy
8:23 AM 80.6 °F 85.4 °F 73.4 °F 79% 29.82 in 10.0 mi ENE 13.8 mph - N/A   Mostly Cloudy
8:55 AM 82.0 °F 87.7 °F 73.2 °F 75% 29.82 in 10.0 mi East 10.4 mph - N/A   Mostly Cloudy
9:05 AM 82.4 °F 88.2 °F 73.4 °F 74% 29.82 in 10.0 mi ENE 10.4 mph - N/A   Scattered Clouds
9:06 AM 82.4 °F 88.2 °F 73.4 °F 74% 29.82 in 10.0 mi ENE 11.5 mph - N/A   Mostly Cloudy
9:10 AM 82.4 °F 88.2 °F 73.4 °F 74% 29.82 in 10.0 mi East 12.7 mph - N/A   Scattered Clouds
9:55 AM 83.3 °F 89.3 °F 73.0 °F 71% 29.81 in 10.0 mi East 11.5 mph - N/A   Scattered Clouds
10:55 AM 84.0 °F 90.8 °F 73.8 °F 71% 29.79 in 10.0 mi East 12.7 mph - N/A   Partly Cloudy
11:19 AM 84.2 °F 90.9 °F 73.4 °F 70% 29.79 in 10.0 mi ENE 10.4 mph - N/A   Mostly Cloudy
11:25 AM 84.2 °F 90.9 °F 73.4 °F 70% 29.79 in 10.0 mi East 12.7 mph - N/A   Scattered Clouds
11:55 AM 84.0 °F 90.8 °F 73.8 °F 71% 29.78 in 10.0 mi East 10.4 mph - N/A   Scattered Clouds
12:02 PM 84.2 °F 90.9 °F 73.4 °F 70% 29.77 in 10.0 mi East 9.2 mph - N/A   Mostly Cloudy
12:55 PM 83.7 °F 90.4 °F 73.6 °F 72% 29.75 in 10.0 mi ENE 11.5 mph - N/A   Mostly Cloudy
1:55 PM 84.4 °F 91.3 °F 73.8 °F 70% 29.73 in 10.0 mi East 11.5 mph - N/A   Mostly Cloudy
2:19 PM 84.2 °F 90.9 °F 73.4 °F 70% 29.72 in 10.0 mi East 11.5 mph - N/A   Scattered Clouds
2:29 PM 84.2 °F 90.9 °F 73.4 °F 70% 29.72 in 10.0 mi East 9.2 mph - N/A   Mostly Cloudy
2:37 PM 84.2 °F 90.9 °F 73.4 °F 70% 29.73 in 10.0 mi ENE 9.2 mph - N/A   Mostly Cloudy
2:51 PM 84.2 °F 90.9 °F 73.4 °F 70% 29.72 in 10.0 mi ENE 10.4 mph - N/A   Mostly Cloudy
2:55 PM 83.1 °F 88.9 °F 73.0 °F 71% 29.72 in 10.0 mi East 9.2 mph - N/A   Mostly Cloudy
3:00 PM 82.4 °F 88.2 °F 73.4 °F 74% 29.72 in 10.0 mi East 9.2 mph - N/A   Scattered Clouds
3:12 PM 84.2 °F 90.9 °F 73.4 °F 70% 29.73 in 10.0 mi NE 10.4 mph - N/A   Mostly Cloudy
3:24 PM 82.4 °F 88.2 °F 73.4 °F 74% 29.73 in 10.0 mi East 6.9 mph - N/A   Mostly Cloudy
3:27 PM 82.4 °F 88.2 °F 73.4 °F 74% 29.73 in 10.0 mi ENE 8.1 mph - N/A   Mostly Cloudy
3:42 PM 82.4 °F 88.2 °F 73.4 °F 74% 29.73 in 10.0 mi ENE 8.1 mph - N/A   Mostly Cloudy
3:55 PM 82.4 °F 88.4 °F 73.6 °F 75% 29.73 in 10.0 mi ENE 9.2 mph - N/A   Mostly Cloudy
4:05 PM 82.4 °F 88.2 °F 73.4 °F 74% 29.73 in 10.0 mi NE 8.1 mph - N/A   Mostly Cloudy
4:08 PM 82.4 °F 88.2 °F 73.4 °F 74% 29.73 in 10.0 mi NE 9.2 mph - N/A   Mostly Cloudy
4:55 PM 80.6 °F 85.0 °F 72.7 °F 77% 29.75 in 10.0 mi ENE 9.2 mph - N/A   Mostly Cloudy
5:55 PM 79.3 °F - 74.1 °F 84% 29.76 in 10.0 mi ENE 8.1 mph - N/A   Partly Cloudy
5:57 PM 78.8 °F - 75.2 °F 89% 29.76 in 10.0 mi NE 6.9 mph - N/A Rain Light Rain
6:13 PM 78.8 °F - 75.2 °F 89% 29.77 in 10.0 mi NE 8.1 mph - N/A   Partly Cloudy
6:37 PM 78.8 °F - 75.2 °F 89% 29.77 in 10.0 mi NNE 9.2 mph - N/A   Mostly Cloudy
6:52 PM 78.8 °F - 75.2 °F 89% 29.78 in 10.0 mi NE 6.9 mph - N/A   Mostly Cloudy
6:55 PM 78.8 °F - 74.7 °F 87% 29.78 in 10.0 mi NE 6.9 mph - 0.00 in   Mostly Cloudy
7:55 PM 78.4 °F - 73.9 °F 86% 29.80 in 10.0 mi NE 6.9 mph - N/A   Scattered Clouds
8:55 PM 78.3 °F - 73.9 °F 87% 29.81 in 10.0 mi NNE 8.1 mph - N/A   Clear
9:55 PM 77.7 °F - 73.6 °F 87% 29.81 in 10.0 mi North 5.8 mph - N/A   Clear
10:42 PM 78.8 °F - 73.4 °F 83% 29.81 in 10.0 mi NNE 3.5 mph - N/A Rain Light Rain
10:55 PM 75.7 °F - 72.5 °F 90% 29.81 in 4.0 mi ENE 15.0 mph 20.7 mph 0.04 in Rain Rain
11:01 PM 75.2 °F - 71.6 °F 89% 29.81 in 4.0 mi NNE 10.4 mph 20.7 mph N/A Rain Light Rain
11:10 PM 73.4 °F - 69.8 °F 88% 29.81 in 10.0 mi North 5.8 mph - N/A   Mostly Cloudy
11:55 PM 76.3 °F - 74.8 °F 95% 29.81 in 10.0 mi NNE 4.6 mph - 0.02 in   Clear